Location: Newark
(40.1500°N, 18.0667°E)
Time: 00:24:32
(UTC+00:00)

Envisat - Visible Passes

Search period start: 25 February 2020 00:00
Search period end: 06 March 2020 00:00
Orbit: 764 x 766 km, 98.1° (Epoch: 24 February)

Date Brightness Start Highest point End Pass type
(mag) Time Alt. Az. Time Alt. Az. Time Alt. Az.
26 Feb 4.9 04:46:49 10° NNE 04:51:28 35° E 04:56:05 10° SSE visible
26 Feb 5.8 17:40:51 10° SW 17:44:39 21° W 17:48:27 10° NW visible
27 Feb 6.3 04:11:23 10° NE 04:14:24 16° E 04:17:24 10° SE visible
27 Feb 4.3 17:02:46 10° S 17:07:38 47° W 17:12:32 10° NNW visible
28 Feb 6.5 18:08:45 10° WSW 18:10:24 11° W 18:12:02 10° WNW visible
29 Feb 5.4 04:35:46 10° NE 04:40:06 28° E 04:44:25 10° SSE visible
29 Feb 5.5 17:29:00 10° SSW 17:33:15 27° W 17:37:31 10° NW visible
01 Mar 6.5 04:01:01 10° ENE 04:02:58 12° E 04:04:54 10° ESE visible
02 Mar 6.2 17:56:06 10° SW 17:58:57 15° W 18:01:50 10° NW visible
03 Mar 5.9 04:24:49 10° NE 04:28:43 22° E 04:32:36 10° SE visible
03 Mar 5.0 17:17:19 10° SSW 17:21:53 34° W 17:26:28 10° NNW visible
05 Mar 6.0 17:43:58 10° SW 17:47:33 19° W 17:51:09 10° NW visible
